Weather History for Thief River Falls, MN

Change the Weather History Date:

Sunday, March 2, 2014

  Actual Average Record
Temperature  
Mean Temperature -17 °F -  
Max Temperature -7 °F 20 °F 38 °F (1983)
Min Temperature -27 °F 5 °F -27 °F (2014)
Degree Days  
Heating Degree Days 82    
Moisture  
Dew Point -23 °F    
Average Humidity 58    
Maximum Humidity 92    
Minimum Humidity 49    
Precipitation  
Precipitation 0.00 in - - ()
Sea Level Pressure  
Sea Level Pressure 30.46 in    
Wind  
Wind Speed 7 mph (WSW)    
Max Wind Speed 9 mph    
Max Gust Speed -    
Visibility 10 miles    
Events      
Averages and records for this station are not official NWS values.
T = Trace of Precipitation, MM = Missing Value Source: NWS Daily Summary

Daily Weather History Graph

Daily Weather History Graph

Search for Another Location

Airport:

Trip Planner

Search our weather history database for the weather conditions in past years. The results will help you decide how hot, cold, wet, or windy it might be!

Date:

Astronomy

Mar. 02, 2014 Rise Set
Actual Time 7:03 AM CST 6:10 PM CST
Civil Twilight 6:32 AM CST 6:41 PM CST
Nautical Twilight 5:56 AM CST 7:17 PM CST
Astronomical Twilight 5:20 AM CST 7:54 PM CST
Moon 7:26 AM CST (3/2) 8:20 PM CST (3/2)
Length of Visible Light 12h 09m
Length of Day
11h 07m
Waxing Crescent, 3% of the Moon is Illuminated
Mar 2
Waxing Crescent
Mar 8
First Quarter
Mar 16
Full
Mar 23
Last Quarter
Mar 30
New

Hourly Weather History & Observations

Time (CST) Temp. Windchill Dew Point Humidity Pressure Visibility Wind Dir Wind Speed Gust Speed Precip Events Conditions
12:15 AM -20.2 °F -38.8 °F - N/A% 30.45 in 10.0 mi WSW 8.1 mph - N/A   Clear
12:35 AM -22.0 °F -42.3 °F - N/A% 30.45 in 10.0 mi WSW 9.2 mph - N/A   Clear
12:55 AM -22.0 °F -41.0 °F - N/A% 30.45 in 10.0 mi WSW 8.1 mph - N/A   Clear
1:15 AM -23.8 °F -43.2 °F - N/A% 30.44 in 10.0 mi WSW 8.1 mph - N/A   Clear
1:35 AM -23.8 °F -43.2 °F - N/A% 30.44 in 10.0 mi WSW 8.1 mph - N/A   Clear
1:55 AM -23.8 °F -39.8 °F - N/A% 30.44 in 10.0 mi WSW 5.8 mph - N/A   Clear
2:15 AM -23.8 °F -43.2 °F - N/A% 30.44 in 10.0 mi WSW 8.1 mph - N/A   Clear
2:35 AM -23.8 °F -44.5 °F - N/A% 30.43 in 10.0 mi WSW 9.2 mph - N/A   Clear
2:55 AM -23.8 °F -44.5 °F - N/A% 30.44 in 10.0 mi SW 9.2 mph - N/A   Clear
3:15 AM -23.8 °F -43.2 °F - N/A% 30.43 in 10.0 mi SW 8.1 mph - N/A   Clear
3:35 AM -23.8 °F -43.2 °F - N/A% 30.43 in 10.0 mi SW 8.1 mph - N/A   Clear
3:55 AM -25.6 °F -41.9 °F - N/A% 30.44 in 10.0 mi SW 5.8 mph - N/A   Clear
4:15 AM -25.6 °F -43.8 °F - N/A% 30.43 in 10.0 mi SW 6.9 mph - N/A   Clear
4:35 AM -25.6 °F -41.9 °F - N/A% 30.43 in 10.0 mi SW 5.8 mph - N/A   Clear
4:55 AM -27.4 °F -44.1 °F - N/A% 30.43 in 10.0 mi SW 5.8 mph - N/A   Clear
5:15 AM -25.6 °F -43.8 °F - N/A% 30.43 in 10.0 mi SW 6.9 mph - N/A   Clear
5:35 AM -25.6 °F -41.9 °F - N/A% 30.43 in 10.0 mi SW 5.8 mph - N/A   Clear
5:55 AM -25.6 °F -41.9 °F - N/A% 30.43 in 10.0 mi SW 5.8 mph - N/A   Clear
6:15 AM -25.6 °F -41.9 °F - N/A% 30.42 in 10.0 mi SW 5.8 mph - N/A   Clear
6:35 AM -25.6 °F -41.9 °F - N/A% 30.43 in 10.0 mi WSW 5.8 mph - N/A   Clear
6:55 AM -25.6 °F -43.8 °F - N/A% 30.43 in 10.0 mi WSW 6.9 mph - N/A   Clear
7:15 AM -25.6 °F -43.8 °F - N/A% 30.43 in 10.0 mi WSW 6.9 mph - N/A   Clear
7:35 AM -25.6 °F -43.8 °F - N/A% 30.44 in 10.0 mi SW 6.9 mph - N/A   Clear
7:55 AM -23.8 °F -41.6 °F - N/A% 30.43 in 10.0 mi SW 6.9 mph - N/A   Clear
8:15 AM -23.8 °F -39.8 °F - N/A% 30.44 in 10.0 mi WSW 5.8 mph - N/A   Clear
8:35 AM -20.2 °F -37.3 °F - N/A% 30.44 in 10.0 mi West 6.9 mph - N/A   Clear
8:55 AM -20.2 °F -33.5 °F - N/A% 30.45 in 10.0 mi West 4.6 mph - N/A   Clear
9:15 AM -18.4 °F -33.4 °F -27.4 °F 63% 30.47 in 10.0 mi West 5.8 mph - N/A   Clear
9:35 AM -16.6 °F -35.7 °F -27.4 °F 58% 30.47 in 10.0 mi WSW 9.2 mph - N/A   Clear
9:55 AM -16.6 °F -31.3 °F -29.2 °F 53% 30.47 in 10.0 mi WSW 5.8 mph - N/A   Clear
10:15 AM -16.6 °F -31.3 °F -27.4 °F 58% 30.48 in 10.0 mi West 5.8 mph - N/A   Clear
10:35 AM -14.8 °F -32.2 °F -27.4 °F 53% 30.48 in 10.0 mi West 8.1 mph - N/A   Clear
10:55 AM -14.8 °F -33.5 °F -27.4 °F 53% 30.48 in 10.0 mi West 9.2 mph - N/A   Clear
11:15 AM -14.8 °F -33.5 °F -27.4 °F 53% 30.48 in 10.0 mi West 9.2 mph - N/A   Clear
11:35 AM -14.8 °F -32.2 °F -27.4 °F 53% 30.48 in 10.0 mi West 8.1 mph - N/A   Clear
11:55 AM -13.0 °F -31.3 °F -23.8 °F 59% 30.48 in 10.0 mi WSW 9.2 mph - N/A   Clear
12:15 PM -13.0 °F -30.0 °F -27.4 °F 49% 30.49 in 10.0 mi WSW 8.1 mph - N/A   Clear
12:35 PM -11.2 °F -26.4 °F -25.6 °F 49% 30.49 in 10.0 mi WSW 6.9 mph - N/A   Clear
12:55 PM -11.2 °F -27.8 °F -20.2 °F 64% 30.49 in 10.0 mi WSW 8.1 mph - N/A   Clear
1:15 PM -11.2 °F -27.8 °F -23.8 °F 54% 30.49 in 10.0 mi WSW 8.1 mph - N/A   Clear
1:35 PM -9.4 °F -26.8 °F -23.8 °F 49% 30.49 in 10.0 mi WSW 9.2 mph - N/A   Clear
1:55 PM -9.4 °F -24.3 °F -20.2 °F 59% 30.49 in 10.0 mi WSW 6.9 mph - N/A   Clear
2:15 PM -9.4 °F -24.3 °F -23.8 °F 49% 30.49 in 10.0 mi West 6.9 mph - N/A   Clear
2:35 PM -9.4 °F -25.6 °F -18.4 °F 65% 30.48 in 10.0 mi WSW 8.1 mph - N/A   Clear
2:55 PM -7.6 °F -23.4 °F -20.2 °F 54% 30.48 in 10.0 mi WSW 8.1 mph - N/A   Clear
3:15 PM -7.6 °F -23.4 °F -22.0 °F 50% 30.48 in 10.0 mi WSW 8.1 mph - N/A   Clear
3:35 PM -7.6 °F -23.4 °F -18.4 °F 59% 30.49 in 10.0 mi WSW 8.1 mph - N/A   Clear
3:55 PM -7.6 °F -22.1 °F -20.2 °F 54% 30.49 in 10.0 mi WSW 6.9 mph - N/A   Clear
4:15 PM -7.6 °F -22.1 °F -18.4 °F 59% 30.48 in 10.0 mi WSW 6.9 mph - N/A   Clear
4:35 PM -7.6 °F -22.1 °F -22.0 °F 50% 30.48 in 10.0 mi West 6.9 mph - N/A   Clear
4:55 PM -7.6 °F -20.6 °F -20.2 °F 54% 30.48 in 10.0 mi WSW 5.8 mph - N/A   Clear
5:15 PM -7.6 °F -20.6 °F -20.2 °F 54% 30.47 in 10.0 mi WSW 5.8 mph - N/A   Clear
5:35 PM -7.6 °F -20.6 °F -20.2 °F 54% 30.48 in 10.0 mi WSW 5.8 mph - N/A   Clear
5:55 PM -7.6 °F -18.8 °F -20.2 °F 54% 30.48 in 10.0 mi WSW 4.6 mph - N/A   Clear
6:15 PM -9.4 °F -20.9 °F -23.8 °F 49% 30.48 in 10.0 mi WSW 4.6 mph - N/A   Clear
6:35 PM -9.4 °F -18.6 °F -20.2 °F 59% 30.47 in 10.0 mi WSW 3.5 mph - N/A   Clear
6:55 PM -9.4 °F - -20.2 °F 59% 30.48 in 10.0 mi Calm Calm - N/A   Clear
7:15 PM -9.4 °F - -18.4 °F 65% 30.49 in 10.0 mi Calm Calm - N/A   Clear
7:35 PM -9.4 °F - -22.0 °F 54% 30.48 in 10.0 mi Calm Calm - N/A   Clear
7:55 PM -9.4 °F - -18.4 °F 65% 30.48 in 10.0 mi Calm Calm - N/A   Clear
8:15 PM -11.2 °F - -23.8 °F 54% 30.47 in 10.0 mi Calm Calm - N/A   Clear
8:35 PM -13.0 °F - -23.8 °F 59% 30.46 in 10.0 mi Calm Calm - N/A   Clear
8:55 PM -13.0 °F - -23.8 °F 59% 30.46 in 10.0 mi Calm Calm - N/A   Clear
9:15 PM -14.8 °F - -25.6 °F 58% 30.46 in 10.0 mi Calm Calm - N/A   Clear
9:35 PM -14.8 °F - -23.8 °F 64% 30.46 in 10.0 mi Calm Calm - N/A   Clear
9:55 PM -14.8 °F - -20.2 °F 77% 30.45 in 10.0 mi Calm Calm - N/A   Clear
10:15 PM -14.8 °F - -27.4 °F 53% 30.46 in 10.0 mi Calm Calm - N/A   Clear
10:35 PM -14.8 °F -24.8 °F -20.2 °F 77% 30.46 in 10.0 mi SSW 3.5 mph - N/A   Clear
10:55 PM -16.6 °F -26.8 °F -25.6 °F 64% 30.45 in 10.0 mi SSW 3.5 mph - N/A   Clear
11:15 PM -16.6 °F -29.3 °F -29.2 °F 53% 30.45 in 10.0 mi SSW 4.6 mph - N/A   Clear
11:35 PM -14.8 °F - -16.6 °F 92% 30.45 in 10.0 mi Calm Calm - N/A   Clear
11:55 PM -16.6 °F -26.8 °F -29.2 °F 53% 30.45 in 10.0 mi SW 3.5 mph - N/A   Clear